Time,TemperatureF,DewpointF,PressureIn,WindDirection,WindDirectionDegrees,WindSpeedMPH,WindSpeedGustMPH,Humidity,HourlyPrecipIn,Conditions,Clouds,dailyrainin,SolarRadiationWatts/m^2,SoftwareType,DateUTC
2013-02-26 00:00:00,33.0,28.7,29.96,NNW,340,0.0,0.0,84,0.00,,,0.00,0,WeatherCatV1.14B232,2013-02-26 05:00:00,
2013-02-26 00:05:00,32.9,28.6,29.95,NNW,340,0.0,0.0,84,0.00,,,0.00,0,WeatherCatV1.14B232,2013-02-26 05:05:00,
2013-02-26 00:10:00,32.5,28.2,29.96,NNW,340,0.0,0.0,84,0.00,,,0.00,0,WeatherCatV1.14B232,2013-02-26 05:10:00,
2013-02-26 00:15:00,32.3,28.3,29.96,NNW,340,0.0,0.0,85,0.00,,,0.00,0,WeatherCatV1.14B232,2013-02-26 05:15:00,
2013-02-26 00:20:00,31.9,28.2,29.95,NNW,340,0.0,0.0,86,0.00,,,0.00,0,WeatherCatV1.14B232,2013-02-26 05:20:00,
2013-02-26 00:25:00,31.7,28.0,29.95,NNW,340,0.0,0.0,86,0.00,,,0.00,0,WeatherCatV1.14B232,2013-02-26 05:25:00,
2013-02-26 00:30:00,31.5,27.8,29.95,NNW,340,0.0,0.0,86,0.00,,,0.00,0,WeatherCatV1.14B232,2013-02-26 05:30:00,
2013-02-26 00:35:00,31.4,27.7,29.95,NNW,340,0.0,0.0,86,0.00,,,0.00,0,WeatherCatV1.14B232,2013-02-26 05:35:00,
2013-02-26 00:40:00,31.2,27.5,29.95,NNW,340,0.0,0.0,86,0.00,,,0.00,0,WeatherCatV1.14B232,2013-02-26 05:40:00,
2013-02-26 00:45:00,31.0,27.6,29.96,NNW,340,0.0,0.0,87,0.00,,,0.00,0,WeatherCatV1.14B232,2013-02-26 05:45:00,
2013-02-26 00:50:00,30.8,27.4,29.95,NNW,340,0.0,0.0,87,0.00,,,0.00,0,WeatherCatV1.14B232,2013-02-26 05:50:00,
2013-02-26 00:55:00,30.6,27.2,29.96,NNW,340,0.0,0.0,87,0.00,,,0.00,0,WeatherCatV1.14B232,2013-02-26 05:55:00,
2013-02-26 01:00:00,30.5,27.1,29.96,NNW,340,0.0,0.0,87,0.00,,,0.00,0,WeatherCatV1.14B232,2013-02-26 06:00:00,
2013-02-26 01:05:00,30.3,27.2,29.98,NNW,340,0.0,0.0,88,0.00,,,0.00,0,WeatherCatV1.14B232,2013-02-26 06:05:00,
2013-02-26 01:10:00,30.1,27.0,29.98,NNW,340,0.0,0.0,88,0.00,,,0.00,0,WeatherCatV1.14B232,2013-02-26 06:10:00,
2013-02-26 01:15:00,30.0,26.9,29.98,NNW,340,0.0,0.0,88,0.00,,,0.00,0,WeatherCatV1.14B232,2013-02-26 06:15:00,
2013-02-26 01:20:00,29.9,27.1,29.99,NNW,340,0.0,0.0,89,0.00,,,0.00,0,WeatherCatV1.14B232,2013-02-26 06:20:00,
2013-02-26 01:25:00,29.7,26.9,30.00,NNW,340,0.0,0.0,89,0.00,,,0.00,0,WeatherCatV1.14B232,2013-02-26 06:25:00,
2013-02-26 01:30:00,29.7,26.9,30.00,NNW,340,0.0,0.0,89,0.00,,,0.00,0,WeatherCatV1.14B232,2013-02-26 06:30:00,
2013-02-26 01:35:00,29.6,27.0,30.00,NNW,340,0.0,0.0,90,0.00,,,0.00,0,WeatherCatV1.14B232,2013-02-26 06:35:00,
2013-02-26 01:40:00,29.6,27.0,30.00,NNW,340,0.0,0.0,90,0.00,,,0.00,0,WeatherCatV1.14B232,2013-02-26 06:40:00,
2013-02-26 01:45:00,29.6,27.0,30.00,NNW,340,0.0,0.0,90,0.00,,,0.00,0,WeatherCatV1.14B232,2013-02-26 06:45:00,
2013-02-26 01:50:00,29.5,27.2,29.99,NNW,340,0.0,0.0,91,0.00,,,0.00,0,WeatherCatV1.14B232,2013-02-26 06:50:00,
2013-02-26 01:55:00,29.5,27.2,30.00,NNW,340,0.0,0.0,91,0.00,,,0.00,0,WeatherCatV1.14B232,2013-02-26 06:55:00,
2013-02-26 02:00:00,29.5,27.2,29.99,NNW,340,0.0,0.0,91,0.00,,,0.00,0,WeatherCatV1.14B232,2013-02-26 07:00:00,
2013-02-26 02:05:00,29.4,27.1,30.00,NNW,340,0.0,0.0,91,0.00,,,0.00,0,WeatherCatV1.14B232,2013-02-26 07:05:00,
2013-02-26 02:10:00,29.4,27.1,29.99,NNW,340,0.0,0.0,91,0.00,,,0.00,0,WeatherCatV1.14B232,2013-02-26 07:10:00,
2013-02-26 02:15:00,29.4,27.1,29.99,NNW,340,0.0,0.0,91,0.00,,,0.00,0,WeatherCatV1.14B232,2013-02-26 07:15:00,
2013-02-26 02:20:00,29.4,27.1,30.00,NNW,340,0.0,0.0,91,0.00,,,0.00,0,WeatherCatV1.14B232,2013-02-26 07:20:00,
2013-02-26 02:25:00,29.3,27.3,29.99,NNW,340,0.0,0.0,92,0.00,,,0.00,0,WeatherCatV1.14B232,2013-02-26 07:25:00,
2013-02-26 02:30:00,29.3,27.3,29.99,NNW,340,0.0,0.0,92,0.00,,,0.00,0,WeatherCatV1.14B232,2013-02-26 07:30:00,
2013-02-26 02:35:00,29.2,27.2,29.99,NNW,340,0.0,0.0,92,0.00,,,0.00,0,WeatherCatV1.14B232,2013-02-26 07:35:00,
2013-02-26 02:40:00,29.2,27.2,29.99,NNW,340,0.0,0.0,92,0.00,,,0.00,0,WeatherCatV1.14B232,2013-02-26 07:40:00,
2013-02-26 02:45:00,29.2,27.2,29.99,NNW,340,0.0,0.0,92,0.00,,,0.00,0,WeatherCatV1.14B232,2013-02-26 07:45:00,
2013-02-26 02:50:00,29.1,27.1,29.99,NNW,340,0.0,0.0,92,0.00,,,0.00,0,WeatherCatV1.14B232,2013-02-26 07:50:00,
2013-02-26 02:55:00,29.1,27.1,29.99,NNW,340,0.0,0.0,92,0.00,,,0.00,0,WeatherCatV1.14B232,2013-02-26 07:55:00,
2013-02-26 03:00:00,29.0,27.0,29.99,NNW,340,0.0,0.0,92,0.00,,,0.00,0,WeatherCatV1.14B232,2013-02-26 08:00:00,
2013-02-26 03:05:00,29.0,27.0,29.99,NNW,340,0.0,0.0,92,0.00,,,0.00,0,WeatherCatV1.14B232,2013-02-26 08:05:00,
2013-02-26 03:10:00,29.0,27.0,29.99,NNW,340,0.0,0.0,92,0.00,,,0.00,0,WeatherCatV1.14B232,2013-02-26 08:10:00,
2013-02-26 03:15:00,28.9,26.9,29.99,NNW,340,0.0,0.0,92,0.00,,,0.00,0,WeatherCatV1.14B232,2013-02-26 08:15:00,
2013-02-26 03:20:00,28.8,26.8,29.99,NNW,340,0.0,0.0,92,0.00,,,0.00,0,WeatherCatV1.14B232,2013-02-26 08:20:00,
2013-02-26 03:25:00,28.7,26.7,29.99,NNW,340,0.0,0.0,92,0.00,,,0.00,0,WeatherCatV1.14B232,2013-02-26 08:25:00,
2013-02-26 03:30:00,28.6,26.6,29.99,NNW,340,0.0,0.0,92,0.00,,,0.00,0,WeatherCatV1.14B232,2013-02-26 08:30:00,
2013-02-26 03:35:00,28.6,26.6,29.99,NNW,340,0.0,0.0,92,0.00,,,0.00,0,WeatherCatV1.14B232,2013-02-26 08:35:00,
2013-02-26 03:40:00,28.5,26.5,29.99,NNW,340,0.0,0.0,92,0.00,,,0.00,0,WeatherCatV1.14B232,2013-02-26 08:40:00,
2013-02-26 03:45:00,28.4,26.4,29.99,NNW,340,0.0,0.0,92,0.00,,,0.00,0,WeatherCatV1.14B232,2013-02-26 08:45:00,
2013-02-26 03:50:00,28.3,26.3,30.00,NNW,340,0.0,0.0,92,0.00,,,0.00,0,WeatherCatV1.14B232,2013-02-26 08:50:00,
2013-02-26 03:55:00,28.2,26.2,29.99,NNW,340,0.0,0.0,92,0.00,,,0.00,0,WeatherCatV1.14B232,2013-02-26 08:55:00,
2013-02-26 04:00:00,28.1,26.1,30.00,NNW,340,0.0,0.0,92,0.00,,,0.00,0,WeatherCatV1.14B232,2013-02-26 09:00:00,
2013-02-26 04:05:00,28.0,26.0,30.00,NNW,340,0.0,0.0,92,0.00,,,0.00,0,WeatherCatV1.14B232,2013-02-26 09:05:00,
2013-02-26 04:10:00,28.0,26.0,30.00,NNW,340,0.0,0.0,92,0.00,,,0.00,0,WeatherCatV1.14B232,2013-02-26 09:10:00,
2013-02-26 04:15:00,27.9,25.9,29.99,NNW,340,0.0,0.0,92,0.00,,,0.00,0,WeatherCatV1.14B232,2013-02-26 09:15:00,
2013-02-26 04:20:00,27.8,25.8,29.99,NNW,340,0.0,0.0,92,0.00,,,0.00,0,WeatherCatV1.14B232,2013-02-26 09:20:00,
2013-02-26 04:25:00,27.8,25.8,29.99,NNW,340,0.0,0.0,92,0.00,,,0.00,0,WeatherCatV1.14B232,2013-02-26 09:25:00,
2013-02-26 04:30:00,27.7,25.7,29.99,NNW,340,0.0,0.0,92,0.00,,,0.00,0,WeatherCatV1.14B232,2013-02-26 09:30:00,
2013-02-26 04:35:00,27.6,25.6,29.99,NNW,340,0.0,0.0,92,0.00,,,0.00,0,WeatherCatV1.14B232,2013-02-26 09:35:00,
2013-02-26 04:40:00,27.6,25.6,29.99,NNW,340,0.0,0.0,92,0.00,,,0.00,0,WeatherCatV1.14B232,2013-02-26 09:40:00,
2013-02-26 04:45:00,27.5,25.7,29.99,NNW,340,0.0,0.0,93,0.00,,,0.00,0,WeatherCatV1.14B232,2013-02-26 09:45:00,
2013-02-26 04:50:00,27.5,25.7,29.98,NNW,340,0.0,0.0,93,0.00,,,0.00,0,WeatherCatV1.14B232,2013-02-26 09:50:00,
2013-02-26 04:55:00,27.4,25.6,29.98,NNW,340,0.0,0.0,93,0.00,,,0.00,0,WeatherCatV1.14B232,2013-02-26 09:55:00,
2013-02-26 05:00:00,27.3,25.5,29.99,NNW,340,0.0,0.0,93,0.00,,,0.00,0,WeatherCatV1.14B232,2013-02-26 10:00:00,
2013-02-26 05:05:00,27.2,25.5,29.99,NNW,340,0.0,0.0,93,0.00,,,0.00,0,WeatherCatV1.14B232,2013-02-26 10:05:00,
2013-02-26 05:10:00,27.2,25.5,29.98,NNW,340,0.0,0.0,93,0.00,,,0.00,0,WeatherCatV1.14B232,2013-02-26 10:10:00,
2013-02-26 05:15:00,27.1,25.4,29.99,NNW,340,0.0,0.0,93,0.00,,,0.00,0,WeatherCatV1.14B232,2013-02-26 10:15:00,
2013-02-26 05:20:00,27.1,25.4,29.98,NNW,340,0.0,0.0,93,0.00,,,0.00,0,WeatherCatV1.14B232,2013-02-26 10:20:00,
2013-02-26 05:25:00,27.0,25.3,29.99,NNW,340,0.0,0.0,93,0.00,,,0.00,0,WeatherCatV1.14B232,2013-02-26 10:25:00,
2013-02-26 05:30:00,26.9,25.2,29.99,NNW,340,0.0,0.0,93,0.00,,,0.00,0,WeatherCatV1.14B232,2013-02-26 10:30:00,
2013-02-26 05:35:00,26.9,25.2,29.98,NNW,340,0.0,0.0,93,0.00,,,0.00,0,WeatherCatV1.14B232,2013-02-26 10:35:00,
2013-02-26 05:40:00,26.8,25.1,29.98,NNW,340,0.0,0.0,93,0.00,,,0.00,0,WeatherCatV1.14B232,2013-02-26 10:40:00,
2013-02-26 05:45:00,26.7,25.0,29.98,NNW,340,0.0,0.0,93,0.00,,,0.00,0,WeatherCatV1.14B232,2013-02-26 10:45:00,
2013-02-26 05:50:00,26.6,24.9,29.97,NNW,340,0.0,0.0,93,0.00,,,0.00,0,WeatherCatV1.14B232,2013-02-26 10:50:00,
2013-02-26 05:55:00,26.6,24.9,29.97,NNW,340,0.0,0.0,93,0.00,,,0.00,0,WeatherCatV1.14B232,2013-02-26 10:55:00,
2013-02-26 06:00:00,26.5,24.8,29.97,NNW,340,0.0,0.0,93,0.00,,,0.00,0,WeatherCatV1.14B232,2013-02-26 11:00:00,
2013-02-26 06:05:00,26.4,24.7,29.98,NNW,340,0.0,0.0,93,0.00,,,0.00,0,WeatherCatV1.14B232,2013-02-26 11:05:00,
2013-02-26 06:10:00,26.3,24.6,29.98,NNW,340,0.0,0.0,93,0.00,,,0.00,0,WeatherCatV1.14B232,2013-02-26 11:10:00,
2013-02-26 06:15:00,26.3,24.6,29.98,NNW,340,0.0,0.0,93,0.00,,,0.00,0,WeatherCatV1.14B232,2013-02-26 11:15:00,
2013-02-26 06:20:00,26.2,24.5,29.98,NNW,340,0.0,0.0,93,0.00,,,0.00,0,WeatherCatV1.14B232,2013-02-26 11:20:00,
2013-02-26 06:25:00,26.2,24.5,29.98,NNW,340,0.0,0.0,93,0.00,,,0.00,0,WeatherCatV1.14B232,2013-02-26 11:25:00,
2013-02-26 06:30:00,26.1,24.4,29.98,NNW,340,0.0,0.0,93,0.00,,,0.00,0,WeatherCatV1.14B232,2013-02-26 11:30:00,
2013-02-26 06:35:00,26.1,24.6,29.98,NNW,340,0.0,0.0,94,0.00,,,0.00,0,WeatherCatV1.14B232,2013-02-26 11:35:00,
2013-02-26 06:40:00,26.1,24.6,29.97,NNW,340,0.0,0.0,94,0.00,,,0.00,0,WeatherCatV1.14B232,2013-02-26 11:40:00,
2013-02-26 06:45:00,26.0,24.5,29.98,NNW,340,0.0,0.0,94,0.00,,,0.00,5,WeatherCatV1.14B232,2013-02-26 11:45:00,
2013-02-26 06:50:00,26.0,24.5,29.98,NNW,340,0.0,0.0,94,0.00,,,0.00,9,WeatherCatV1.14B232,2013-02-26 11:50:00,
2013-02-26 06:54:00,26.0,24.5,29.98,NNW,340,0.0,0.0,94,0.00,,,0.00,12,WeatherCatV1.14B232,2013-02-26 11:54:00,
2013-02-26 06:59:00,26.0,24.5,29.99,NNW,340,0.0,0.0,94,0.00,,,0.00,16,WeatherCatV1.14B232,2013-02-26 11:59:00,
2013-02-26 07:04:00,26.0,24.5,29.99,NNW,340,0.0,0.0,94,0.00,,,0.00,23,WeatherCatV1.14B232,2013-02-26 12:04:00,
2013-02-26 07:09:00,26.0,24.5,29.99,NNW,340,0.0,0.0,94,0.00,,,0.00,30,WeatherCatV1.14B232,2013-02-26 12:09:00,
2013-02-26 07:14:00,26.0,24.5,30.00,NNW,340,0.0,0.0,94,0.00,,,0.00,30,WeatherCatV1.14B232,2013-02-26 12:14:00,
2013-02-26 07:19:00,26.1,24.6,30.00,NNW,340,0.0,0.0,94,0.00,,,0.00,32,WeatherCatV1.14B232,2013-02-26 12:19:00,
2013-02-26 07:24:00,26.2,24.7,30.00,NNW,340,0.0,0.0,94,0.00,,,0.00,40,WeatherCatV1.14B232,2013-02-26 12:24:00,
2013-02-26 07:29:00,26.3,25.1,30.01,NNW,340,0.0,0.0,95,0.00,,,0.00,47,WeatherCatV1.14B232,2013-02-26 12:29:00,
2013-02-26 07:34:00,26.4,25.2,30.00,NNW,340,0.0,0.0,95,0.00,,,0.00,51,WeatherCatV1.14B232,2013-02-26 12:34:00,
2013-02-26 07:39:00,26.6,25.4,30.01,NNW,340,0.0,0.0,95,0.00,,,0.00,56,WeatherCatV1.14B232,2013-02-26 12:39:00,
2013-02-26 07:44:00,26.9,25.7,30.02,NNW,340,0.0,0.0,95,0.00,,,0.00,60,WeatherCatV1.14B232,2013-02-26 12:44:00,
2013-02-26 07:49:00,27.1,25.9,30.02,NNW,340,0.0,0.0,95,0.00,,,0.00,65,WeatherCatV1.14B232,2013-02-26 12:49:00,
2013-02-26 07:54:00,27.4,26.2,30.02,NNW,340,0.0,0.0,95,0.00,,,0.00,70,WeatherCatV1.14B232,2013-02-26 12:54:00,
2013-02-26 07:59:00,27.7,26.5,30.02,NNW,340,0.0,0.0,95,0.00,,,0.00,83,WeatherCatV1.14B232,2013-02-26 12:59:00,
2013-02-26 08:04:00,27.9,26.7,30.02,NNW,340,0.0,0.0,95,0.00,,,0.00,88,WeatherCatV1.14B232,2013-02-26 13:04:00,
2013-02-26 08:09:00,28.1,27.1,30.02,NNW,340,0.0,0.0,96,0.00,,,0.00,95,WeatherCatV1.14B232,2013-02-26 13:09:00,
2013-02-26 08:14:00,28.5,27.5,30.02,NNW,340,0.0,0.0,96,0.00,,,0.00,97,WeatherCatV1.14B232,2013-02-26 13:14:00,
2013-02-26 08:19:00,28.9,27.9,30.02,NNW,340,0.0,0.0,96,0.00,,,0.00,102,WeatherCatV1.14B232,2013-02-26 13:19:00,
2013-02-26 08:24:00,29.3,28.3,30.02,NNW,340,0.0,0.0,96,0.00,,,0.00,107,WeatherCatV1.14B232,2013-02-26 13:24:00,
2013-02-26 08:29:00,29.7,28.7,30.02,NNW,340,0.0,0.0,96,0.00,,,0.00,113,WeatherCatV1.14B232,2013-02-26 13:29:00,
2013-02-26 08:34:00,30.3,29.3,30.02,NNW,340,0.0,0.0,96,0.00,,,0.00,116,WeatherCatV1.14B232,2013-02-26 13:34:00,
2013-02-26 08:39:00,30.6,29.6,30.02,NNW,340,0.0,0.0,96,0.00,,,0.00,113,WeatherCatV1.14B232,2013-02-26 13:39:00,
2013-02-26 08:44:00,30.9,29.9,30.02,NNW,340,0.0,0.0,96,0.00,,,0.00,114,WeatherCatV1.14B232,2013-02-26 13:44:00,
2013-02-26 08:49:00,31.2,30.2,30.02,NNW,340,0.0,0.0,96,0.00,,,0.00,123,WeatherCatV1.14B232,2013-02-26 13:49:00,
2013-02-26 08:54:00,31.5,30.5,30.02,NNW,340,0.0,0.0,96,0.00,,,0.00,128,WeatherCatV1.14B232,2013-02-26 13:54:00,
2013-02-26 08:59:00,31.9,30.9,30.02,NNW,340,0.0,0.0,96,0.00,,,0.00,137,WeatherCatV1.14B232,2013-02-26 13:59:00,
2013-02-26 09:04:00,32.3,31.3,30.02,NNW,340,0.0,0.0,96,0.00,,,0.00,139,WeatherCatV1.14B232,2013-02-26 14:04:00,
2013-02-26 09:09:00,32.7,31.7,30.02,North,5,1.0,2.0,96,0.00,,,0.00,146,WeatherCatV1.14B232,2013-02-26 14:09:00,
2013-02-26 09:14:00,33.3,32.3,30.01,North,5,0.0,1.0,96,0.00,,,0.00,155,WeatherCatV1.14B232,2013-02-26 14:14:00,
2013-02-26 09:19:00,34.1,32.6,30.01,NNE,18,0.0,1.0,94,0.00,,,0.00,162,WeatherCatV1.14B232,2013-02-26 14:19:00,
2013-02-26 09:24:00,34.8,32.7,30.01,NE,56,1.0,1.0,92,0.00,,,0.00,165,WeatherCatV1.14B232,2013-02-26 14:24:00,
2013-02-26 09:29:00,35.4,32.8,30.00,NE,56,0.0,2.0,90,0.00,,,0.00,172,WeatherCatV1.14B232,2013-02-26 14:29:00,
2013-02-26 09:34:00,35.9,33.0,30.00,NE,56,0.0,2.0,89,0.00,,,0.00,186,WeatherCatV1.14B232,2013-02-26 14:34:00,
2013-02-26 09:39:00,36.3,33.1,30.00,ENE,61,0.0,3.0,88,0.00,,,0.00,193,WeatherCatV1.14B232,2013-02-26 14:39:00,
2013-02-26 09:44:00,36.8,33.3,30.00,ENE,61,2.0,2.0,87,0.00,,,0.00,207,WeatherCatV1.14B232,2013-02-26 14:44:00,
2013-02-26 09:49:00,37.3,33.5,30.00,ENE,61,1.0,2.0,86,0.00,,,0.00,199,WeatherCatV1.14B232,2013-02-26 14:49:00,
2013-02-26 09:54:00,37.6,33.5,30.00,ENE,61,0.0,1.0,85,0.00,,,0.00,200,WeatherCatV1.14B232,2013-02-26 14:54:00,
2013-02-26 09:59:00,37.9,33.8,30.00,ENE,61,0.0,1.0,85,0.00,,,0.00,204,WeatherCatV1.14B232,2013-02-26 14:59:00,
2013-02-26 10:04:00,38.3,33.9,30.01,NNE,21,1.0,3.0,84,0.00,,,0.00,207,WeatherCatV1.14B232,2013-02-26 15:04:00,
2013-02-26 10:09:00,38.7,34.0,30.01,NNE,21,0.0,0.0,83,0.00,,,0.00,209,WeatherCatV1.14B232,2013-02-26 15:09:00,
2013-02-26 10:14:00,39.1,34.4,30.01,NNE,21,0.0,2.0,83,0.00,,,0.00,216,WeatherCatV1.14B232,2013-02-26 15:14:00,
2013-02-26 10:19:00,39.5,34.5,30.01,NNE,21,0.0,1.0,82,0.00,,,0.00,218,WeatherCatV1.14B232,2013-02-26 15:19:00,
2013-02-26 10:24:00,39.9,34.9,30.01,NNE,21,0.0,1.0,82,0.00,,,0.00,227,WeatherCatV1.14B232,2013-02-26 15:24:00,
2013-02-26 10:29:00,40.3,34.6,30.01,NNE,21,0.0,1.0,80,0.00,,,0.00,227,WeatherCatV1.14B232,2013-02-26 15:29:00,
2013-02-26 10:34:00,40.6,34.6,30.01,ESE,107,1.0,3.0,79,0.00,,,0.00,221,WeatherCatV1.14B232,2013-02-26 15:34:00,
2013-02-26 10:39:00,41.0,34.7,30.00,ESE,103,0.0,2.0,78,0.00,,,0.00,211,WeatherCatV1.14B232,2013-02-26 15:39:00,
2013-02-26 10:44:00,41.4,34.7,30.00,SE,139,2.0,2.0,77,0.00,,,0.00,225,WeatherCatV1.14B232,2013-02-26 15:44:00,
2013-02-26 10:49:00,41.6,34.9,30.01,ESE,118,0.0,2.0,77,0.00,,,0.00,209,WeatherCatV1.14B232,2013-02-26 15:49:00,
2013-02-26 10:54:00,41.8,35.1,30.01,ESE,118,0.0,1.0,77,0.00,,,0.00,216,WeatherCatV1.14B232,2013-02-26 15:54:00,
2013-02-26 10:59:00,42.1,35.1,30.01,SSW,198,2.0,4.0,76,0.00,,,0.00,214,WeatherCatV1.14B232,2013-02-26 15:59:00,
2013-02-26 11:04:00,42.4,35.0,30.01,East,90,0.0,0.0,75,0.00,,,0.00,230,WeatherCatV1.14B232,2013-02-26 16:04:00,
2013-02-26 11:09:00,42.6,34.6,30.00,East,88,3.0,5.0,73,0.00,,,0.00,218,WeatherCatV1.14B232,2013-02-26 16:09:00,
2013-02-26 11:14:00,42.7,34.0,30.00,East,99,1.0,5.0,71,0.00,,,0.00,199,WeatherCatV1.14B232,2013-02-26 16:14:00,
2013-02-26 11:19:00,42.8,34.4,30.00,ESE,106,1.0,3.0,72,0.00,,,0.00,223,WeatherCatV1.14B232,2013-02-26 16:19:00,
2013-02-26 11:24:00,43.0,34.3,30.00,ESE,108,2.0,3.0,71,0.00,,,0.00,255,WeatherCatV1.14B232,2013-02-26 16:24:00,
2013-02-26 11:29:00,43.1,33.6,30.00,ESE,123,2.0,4.0,69,0.00,,,0.00,234,WeatherCatV1.14B232,2013-02-26 16:29:00,
2013-02-26 11:34:00,43.2,33.7,30.00,ESE,109,2.0,5.0,69,0.00,,,0.00,271,WeatherCatV1.14B232,2013-02-26 16:34:00,
2013-02-26 11:39:00,43.3,33.5,29.99,ESE,115,0.0,3.0,68,0.00,,,0.00,283,WeatherCatV1.14B232,2013-02-26 16:39:00,
2013-02-26 11:44:00,43.4,33.6,29.99,ESE,108,2.0,3.0,68,0.00,,,0.00,260,WeatherCatV1.14B232,2013-02-26 16:44:00,
2013-02-26 11:49:00,43.5,33.7,29.99,ESE,113,2.0,6.0,68,0.00,,,0.00,241,WeatherCatV1.14B232,2013-02-26 16:49:00,
2013-02-26 11:54:00,43.5,34.0,29.99,East,100,3.0,4.0,69,0.00,,,0.00,225,WeatherCatV1.14B232,2013-02-26 16:54:00,
2013-02-26 11:59:00,43.4,33.9,29.99,ENE,74,3.0,5.0,69,0.00,,,0.00,195,WeatherCatV1.14B232,2013-02-26 16:59:00,
2013-02-26 12:04:00,43.2,33.4,29.99,ESE,107,2.0,5.0,68,0.00,,,0.00,216,WeatherCatV1.14B232,2013-02-26 17:04:00,
2013-02-26 12:09:00,43.2,33.7,29.98,ESE,118,4.0,4.0,69,0.00,,,0.00,239,WeatherCatV1.14B232,2013-02-26 17:09:00,
2013-02-26 12:14:00,43.2,33.7,29.98,SE,137,4.0,5.0,69,0.00,,,0.00,243,WeatherCatV1.14B232,2013-02-26 17:14:00,
2013-02-26 12:19:00,43.2,33.7,29.98,SE,139,1.0,5.0,69,0.00,,,0.00,250,WeatherCatV1.14B232,2013-02-26 17:19:00,
2013-02-26 12:24:00,43.4,33.9,29.98,ESE,119,3.0,4.0,69,0.00,,,0.00,230,WeatherCatV1.14B232,2013-02-26 17:24:00,
2013-02-26 12:29:00,43.5,34.0,29.98,ESE,114,3.0,3.0,69,0.00,,,0.00,258,WeatherCatV1.14B232,2013-02-26 17:29:00,
2013-02-26 12:34:00,43.6,34.1,29.98,ESE,112,4.0,5.0,69,0.00,,,0.00,253,WeatherCatV1.14B232,2013-02-26 17:34:00,
2013-02-26 12:39:00,43.7,33.8,29.98,East,87,5.0,6.0,68,0.00,,,0.00,214,WeatherCatV1.14B232,2013-02-26 17:39:00,
2013-02-26 12:44:00,43.7,33.8,29.98,SE,127,3.0,7.0,68,0.00,,,0.00,221,WeatherCatV1.14B232,2013-02-26 17:44:00,
2013-02-26 12:49:00,43.6,34.1,29.97,ESE,111,3.0,5.0,69,0.00,,,0.00,285,WeatherCatV1.14B232,2013-02-26 17:49:00,
2013-02-26 12:54:00,43.6,34.1,29.97,ESE,108,3.0,4.0,69,0.00,,,0.00,241,WeatherCatV1.14B232,2013-02-26 17:54:00,
2013-02-26 12:59:00,43.7,33.8,29.97,ESE,104,1.0,7.0,68,0.00,,,0.00,297,WeatherCatV1.14B232,2013-02-26 17:59:00,
2013-02-26 13:04:00,43.8,33.9,29.97,SE,128,1.0,4.0,68,0.00,,,0.00,281,WeatherCatV1.14B232,2013-02-26 18:04:00,
2013-02-26 13:09:00,44.0,34.1,29.96,ESE,102,1.0,7.0,68,0.00,,,0.00,292,WeatherCatV1.14B232,2013-02-26 18:09:00,
2013-02-26 13:14:00,44.2,33.9,29.95,SE,128,6.0,6.0,67,0.00,,,0.00,230,WeatherCatV1.14B232,2013-02-26 18:14:00,
2013-02-26 13:19:00,44.1,33.5,29.95,SE,128,3.0,5.0,66,0.00,,,0.00,262,WeatherCatV1.14B232,2013-02-26 18:19:00,
2013-02-26 13:24:00,43.9,33.7,29.95,East,95,5.0,7.0,67,0.00,,,0.00,260,WeatherCatV1.14B232,2013-02-26 18:24:00,
2013-02-26 13:29:00,43.9,33.7,29.94,East,88,2.0,3.0,67,0.00,,,0.00,255,WeatherCatV1.14B232,2013-02-26 18:29:00,
2013-02-26 13:34:00,43.9,32.9,29.94,SSE,147,6.0,7.0,65,0.00,,,0.00,308,WeatherCatV1.14B232,2013-02-26 18:34:00,
2013-02-26 13:39:00,43.8,32.4,29.94,SE,138,4.0,5.0,64,0.00,,,0.00,232,WeatherCatV1.14B232,2013-02-26 18:39:00,
2013-02-26 13:44:00,43.6,32.6,29.94,ESE,105,1.0,3.0,65,0.00,,,0.00,202,WeatherCatV1.14B232,2013-02-26 18:44:00,
2013-02-26 13:49:00,43.7,33.5,29.94,ESE,115,5.0,5.0,67,0.00,,,0.00,185,WeatherCatV1.14B232,2013-02-26 18:49:00,
2013-02-26 13:54:00,43.7,32.7,29.94,SE,134,4.0,8.0,65,0.00,,,0.00,162,WeatherCatV1.14B232,2013-02-26 18:54:00,
2013-02-26 13:59:00,43.5,32.1,29.95,SE,130,4.0,8.0,64,0.00,,,0.00,118,WeatherCatV1.14B232,2013-02-26 18:59:00,
2013-02-26 14:04:00,43.4,32.4,29.95,ESE,104,3.0,5.0,65,0.00,,,0.00,105,WeatherCatV1.14B232,2013-02-26 19:04:00,
2013-02-26 14:09:00,43.2,32.2,29.95,East,84,5.0,6.0,65,0.00,,,0.00,95,WeatherCatV1.14B232,2013-02-26 19:09:00,
2013-02-26 14:14:00,43.0,32.1,29.95,East,92,2.0,8.0,65,0.00,,,0.00,111,WeatherCatV1.14B232,2013-02-26 19:14:00,
2013-02-26 14:19:00,42.9,32.0,29.95,ENE,76,4.0,7.0,65,0.00,,,0.00,134,WeatherCatV1.14B232,2013-02-26 19:19:00,
2013-02-26 14:24:00,42.8,32.2,29.94,East,101,5.0,7.0,66,0.00,,,0.00,139,WeatherCatV1.14B232,2013-02-26 19:24:00,
2013-02-26 14:29:00,42.7,32.5,29.94,ESE,112,3.0,7.0,67,0.00,,,0.00,120,WeatherCatV1.14B232,2013-02-26 19:29:00,
2013-02-26 14:34:00,42.6,32.4,29.93,ENE,78,3.0,6.0,67,0.00,,,0.00,132,WeatherCatV1.14B232,2013-02-26 19:34:00,
2013-02-26 14:39:00,42.5,33.1,29.93,East,88,5.0,6.0,69,0.00,,,0.00,134,WeatherCatV1.14B232,2013-02-26 19:39:00,
2013-02-26 14:44:00,42.5,33.1,29.93,SE,138,6.0,6.0,69,0.00,,,0.00,137,WeatherCatV1.14B232,2013-02-26 19:44:00,
2013-02-26 14:49:00,42.4,33.0,29.92,ESE,115,3.0,3.0,69,0.00,,,0.00,146,WeatherCatV1.14B232,2013-02-26 19:49:00,
2013-02-26 14:54:00,42.4,32.6,29.92,ESE,110,5.0,7.0,68,0.00,,,0.00,149,WeatherCatV1.14B232,2013-02-26 19:54:00,
2013-02-26 14:59:00,42.4,33.0,29.92,ESE,112,0.0,5.0,69,0.00,,,0.00,139,WeatherCatV1.14B232,2013-02-26 19:59:00,
2013-02-26 15:04:00,42.3,32.9,29.92,East,82,2.0,5.0,69,0.00,,,0.00,130,WeatherCatV1.14B232,2013-02-26 20:04:00,
2013-02-26 15:09:00,42.2,32.8,29.91,East,87,5.0,10.0,69,0.00,,,0.00,123,WeatherCatV1.14B232,2013-02-26 20:09:00,
2013-02-26 15:14:00,42.1,32.3,29.91,ESE,109,4.0,7.0,68,0.00,,,0.00,120,WeatherCatV1.14B232,2013-02-26 20:14:00,
2013-02-26 15:19:00,42.0,32.6,29.91,ESE,111,2.0,7.0,69,0.00,,,0.00,114,WeatherCatV1.14B232,2013-02-26 20:19:00,
2013-02-26 15:24:00,42.0,32.9,29.91,SE,128,0.0,3.0,70,0.00,,,0.00,105,WeatherCatV1.14B232,2013-02-26 20:24:00,
2013-02-26 15:29:00,42.0,32.2,29.91,East,88,7.0,7.0,68,0.00,,,0.00,93,WeatherCatV1.14B232,2013-02-26 20:29:00,
2013-02-26 15:34:00,41.8,32.0,29.91,ESE,118,3.0,5.0,68,0.00,,,0.00,86,WeatherCatV1.14B232,2013-02-26 20:34:00,
2013-02-26 15:39:00,41.7,32.3,29.91,ESE,109,3.0,6.0,69,0.00,,,0.00,76,WeatherCatV1.14B232,2013-02-26 20:39:00,
2013-02-26 15:44:00,41.7,32.6,29.91,SSE,148,5.0,7.0,70,0.00,,,0.00,65,WeatherCatV1.14B232,2013-02-26 20:44:00,
2013-02-26 15:49:00,41.5,32.5,29.91,ESE,111,2.0,7.0,70,0.00,,,0.00,44,WeatherCatV1.14B232,2013-02-26 20:49:00,
2013-02-26 15:54:00,41.4,32.7,29.91,ESE,111,5.0,5.0,71,0.00,,,0.00,37,WeatherCatV1.14B232,2013-02-26 20:54:00,
2013-02-26 15:59:00,41.3,32.6,29.91,ESE,113,2.0,5.0,71,0.00,,,0.00,40,WeatherCatV1.14B232,2013-02-26 20:59:00,
2013-02-26 16:04:00,41.2,32.5,29.91,ESE,103,2.0,5.0,71,0.00,,,0.00,46,WeatherCatV1.14B232,2013-02-26 21:04:00,
2013-02-26 16:09:00,41.1,32.4,29.90,East,96,3.0,4.0,71,0.00,,,0.00,40,WeatherCatV1.14B232,2013-02-26 21:09:00,
2013-02-26 16:14:00,41.0,32.3,29.89,ESE,109,2.0,6.0,71,0.00,,,0.00,30,WeatherCatV1.14B232,2013-02-26 21:14:00,
2013-02-26 16:19:00,41.0,32.3,29.89,ESE,111,5.0,7.0,71,0.00,,,0.00,25,WeatherCatV1.14B232,2013-02-26 21:19:00,
2013-02-26 16:24:00,41.0,32.0,29.89,East,96,1.0,3.0,70,0.00,,,0.00,18,WeatherCatV1.14B232,2013-02-26 21:24:00,
2013-02-26 16:29:00,40.9,31.9,29.89,ESE,116,4.0,5.0,70,0.00,,,0.00,16,WeatherCatV1.14B232,2013-02-26 21:29:00,
2013-02-26 16:34:00,40.9,31.9,29.89,East,100,3.0,6.0,70,0.00,,,0.00,14,WeatherCatV1.14B232,2013-02-26 21:34:00,
2013-02-26 16:39:00,40.8,31.8,29.89,East,92,2.0,5.0,70,0.00,,,0.00,14,WeatherCatV1.14B232,2013-02-26 21:39:00,
2013-02-26 16:44:00,40.7,31.7,29.88,ESE,110,4.0,5.0,70,0.00,,,0.00,14,WeatherCatV1.14B232,2013-02-26 21:44:00,
2013-02-26 16:49:00,40.7,31.7,29.87,East,101,2.0,3.0,70,0.00,,,0.00,12,WeatherCatV1.14B232,2013-02-26 21:49:00,
2013-02-26 16:54:00,40.6,31.9,29.86,East,92,1.0,5.0,71,0.00,,,0.00,9,WeatherCatV1.14B232,2013-02-26 21:54:00,
2013-02-26 16:59:00,40.6,31.9,29.87,East,84,1.0,4.0,71,0.00,,,0.00,9,WeatherCatV1.14B232,2013-02-26 21:59:00,
2013-02-26 17:04:00,40.6,32.3,29.87,ESE,111,2.0,3.0,72,0.00,,,0.00,5,WeatherCatV1.14B232,2013-02-26 22:04:00,
2013-02-26 17:09:00,40.6,32.6,29.86,ENE,77,1.0,3.0,73,0.00,,,0.00,0,WeatherCatV1.14B232,2013-02-26 22:09:00,
2013-02-26 17:14:00,40.5,32.9,29.86,ESE,103,3.0,3.0,74,0.00,,,0.00,0,WeatherCatV1.14B232,2013-02-26 22:14:00,
2013-02-26 17:19:00,40.4,32.8,29.86,ESE,117,2.0,4.0,74,0.00,,,0.00,0,WeatherCatV1.14B232,2013-02-26 22:19:00,
2013-02-26 17:24:00,40.4,33.1,29.86,East,101,1.0,3.0,75,0.00,,,0.00,0,WeatherCatV1.14B232,2013-02-26 22:24:00,
2013-02-26 17:29:00,40.4,33.1,29.85,East,101,2.0,2.0,75,0.00,,,0.00,0,WeatherCatV1.14B232,2013-02-26 22:29:00,
2013-02-26 17:34:00,40.3,32.3,29.86,NE,48,2.0,7.0,73,0.00,,,0.00,0,WeatherCatV1.14B232,2013-02-26 22:34:00,
2013-02-26 17:39:00,40.3,32.7,29.87,ESE,115,5.0,5.0,74,0.00,,,0.00,0,WeatherCatV1.14B232,2013-02-26 22:39:00,
2013-02-26 17:44:00,40.2,32.6,29.86,NW,314,2.0,5.0,74,0.00,,,0.00,0,WeatherCatV1.14B232,2013-02-26 22:44:00,
2013-02-26 17:49:00,40.2,32.9,29.86,East,94,1.0,5.0,75,0.00,,,0.00,0,WeatherCatV1.14B232,2013-02-26 22:49:00,
2013-02-26 17:54:00,40.1,32.8,29.86,ENE,74,1.0,3.0,75,0.00,,,0.00,0,WeatherCatV1.14B232,2013-02-26 22:54:00,
2013-02-26 17:59:00,40.1,32.8,29.85,East,93,3.0,3.0,75,0.00,,,0.00,0,WeatherCatV1.14B232,2013-02-26 22:59:00,
2013-02-26 18:04:00,40.0,32.7,29.85,East,100,2.0,3.0,75,0.00,,,0.00,0,WeatherCatV1.14B232,2013-02-26 23:04:00,
2013-02-26 18:09:00,40.0,32.4,29.85,East,101,3.0,7.0,74,0.00,,,0.00,0,WeatherCatV1.14B232,2013-02-26 23:09:00,
2013-02-26 18:14:00,39.9,32.3,29.85,ESE,106,3.0,6.0,74,0.00,,,0.00,0,WeatherCatV1.14B232,2013-02-26 23:14:00,
2013-02-26 18:19:00,39.9,32.0,29.84,East,101,2.0,5.0,73,0.00,,,0.00,0,WeatherCatV1.14B232,2013-02-26 23:19:00,
2013-02-26 18:24:00,39.8,31.9,29.84,East,83,3.0,3.0,73,0.00,,,0.00,0,WeatherCatV1.14B232,2013-02-26 23:24:00,
2013-02-26 18:29:00,39.7,31.8,29.84,ESE,115,3.0,8.0,73,0.00,,,0.00,0,WeatherCatV1.14B232,2013-02-26 23:29:00,
2013-02-26 18:34:00,39.7,31.8,29.85,East,86,2.0,5.0,73,0.00,,,0.00,0,WeatherCatV1.14B232,2013-02-26 23:34:00,
2013-02-26 18:39:00,39.7,31.8,29.84,East,96,1.0,5.0,73,0.00,,,0.00,0,WeatherCatV1.14B232,2013-02-26 23:39:00,
2013-02-26 18:44:00,39.7,32.1,29.83,East,90,2.0,6.0,74,0.00,,,0.00,0,WeatherCatV1.14B232,2013-02-26 23:44:00,
2013-02-26 18:49:00,39.6,32.0,29.84,ENE,73,1.0,4.0,74,0.00,,,0.00,0,WeatherCatV1.14B232,2013-02-26 23:49:00,
2013-02-26 18:54:00,39.6,32.0,29.83,ENE,63,0.0,6.0,74,0.00,,,0.00,0,WeatherCatV1.14B232,2013-02-26 23:54:00,
2013-02-26 18:59:00,39.5,32.2,29.83,ESE,109,2.0,3.0,75,0.00,,,0.00,0,WeatherCatV1.14B232,2013-02-26 23:59:00,
2013-02-26 19:04:00,39.5,32.6,29.83,East,84,3.0,5.0,76,0.00,,,0.00,0,WeatherCatV1.14B232,2013-02-27 00:04:00,
2013-02-26 19:09:00,39.4,32.1,29.83,ENE,63,3.0,6.0,75,0.00,,,0.00,0,WeatherCatV1.14B232,2013-02-27 00:09:00,
2013-02-26 19:14:00,39.3,32.4,29.83,North,9,2.0,5.0,76,0.00,,,0.00,0,WeatherCatV1.14B232,2013-02-27 00:14:00,
2013-02-26 19:19:00,39.2,32.3,29.82,East,82,3.0,6.0,76,0.00,,,0.00,0,WeatherCatV1.14B232,2013-02-27 00:19:00,
2013-02-26 19:24:00,39.2,32.0,29.82,East,94,5.0,7.0,75,0.00,,,0.00,0,WeatherCatV1.14B232,2013-02-27 00:24:00,
2013-02-26 19:29:00,39.1,31.9,29.81,ENE,67,2.0,5.0,75,0.00,,,0.00,0,WeatherCatV1.14B232,2013-02-27 00:29:00,
2013-02-26 19:34:00,39.1,31.5,29.81,ESE,105,3.0,11.0,74,0.00,,,0.00,0,WeatherCatV1.14B232,2013-02-27 00:34:00,
2013-02-26 19:39:00,39.1,31.5,29.81,East,84,5.0,7.0,74,0.00,,,0.00,0,WeatherCatV1.14B232,2013-02-27 00:39:00,
2013-02-26 19:44:00,39.0,32.1,29.81,ENE,71,2.0,3.0,76,0.00,,,0.00,0,WeatherCatV1.14B232,2013-02-27 00:44:00,
2013-02-26 19:49:00,38.8,31.9,29.80,ESE,102,2.0,6.0,76,0.00,,,0.00,0,WeatherCatV1.14B232,2013-02-27 00:49:00,
2013-02-26 19:54:00,38.7,31.8,29.80,ENE,63,3.0,7.0,76,0.00,,,0.00,0,WeatherCatV1.14B232,2013-02-27 00:54:00,
2013-02-26 19:59:00,38.7,31.5,29.79,ESE,111,4.0,4.0,75,0.00,,,0.00,0,WeatherCatV1.14B232,2013-02-27 00:59:00,
2013-02-26 20:04:00,38.7,31.8,29.79,East,86,2.0,7.0,76,0.00,,,0.00,0,WeatherCatV1.14B232,2013-02-27 01:04:00,
2013-02-26 20:09:00,38.7,31.5,29.79,NE,44,4.0,7.0,75,0.00,,,0.00,0,WeatherCatV1.14B232,2013-02-27 01:09:00,
2013-02-26 20:14:00,38.7,31.8,29.78,East,90,5.0,7.0,76,0.00,,,0.00,0,WeatherCatV1.14B232,2013-02-27 01:14:00,
2013-02-26 20:19:00,38.7,31.8,29.78,East,89,7.0,7.0,76,0.00,,,0.00,0,WeatherCatV1.14B232,2013-02-27 01:19:00,
2013-02-26 20:24:00,38.7,32.1,29.77,ENE,70,3.0,7.0,77,0.00,,,0.00,0,WeatherCatV1.14B232,2013-02-27 01:24:00,
2013-02-26 20:29:00,38.7,32.4,29.77,NE,54,2.0,5.0,78,0.00,,,0.00,0,WeatherCatV1.14B232,2013-02-27 01:29:00,
2013-02-26 20:34:00,38.6,32.3,29.76,ENE,71,3.0,5.0,78,0.00,,,0.00,0,WeatherCatV1.14B232,2013-02-27 01:34:00,
2013-02-26 20:39:00,38.6,32.7,29.75,ENE,70,7.0,7.0,79,0.00,,,0.00,0,WeatherCatV1.14B232,2013-02-27 01:39:00,
2013-02-26 20:44:00,38.5,32.6,29.75,ENE,70,3.0,6.0,79,0.00,,,0.00,0,WeatherCatV1.14B232,2013-02-27 01:44:00,
2013-02-26 20:49:00,38.5,32.6,29.75,East,101,3.0,8.0,79,0.00,,,0.00,0,WeatherCatV1.14B232,2013-02-27 01:49:00,
2013-02-26 20:54:00,38.5,32.6,29.74,ENE,78,4.0,6.0,79,0.00,,,0.00,0,WeatherCatV1.14B232,2013-02-27 01:54:00,
2013-02-26 20:59:00,38.5,32.6,29.74,NE,53,3.0,6.0,79,0.00,,,0.00,0,WeatherCatV1.14B232,2013-02-27 01:59:00,
2013-02-26 21:04:00,38.5,32.6,29.73,ENE,78,4.0,6.0,79,0.00,,,0.00,0,WeatherCatV1.14B232,2013-02-27 02:04:00,
2013-02-26 21:09:00,38.5,32.6,29.73,East,83,2.0,7.0,79,0.00,,,0.00,0,WeatherCatV1.14B232,2013-02-27 02:09:00,
2013-02-26 21:14:00,38.5,32.2,29.72,ENE,61,3.0,5.0,78,0.00,,,0.00,0,WeatherCatV1.14B232,2013-02-27 02:14:00,
2013-02-26 21:19:00,38.4,33.1,29.72,NE,46,1.0,5.0,81,0.00,,,0.00,0,WeatherCatV1.14B232,2013-02-27 02:19:00,
2013-02-26 21:24:00,38.2,32.9,29.73,ENE,73,2.0,7.0,81,0.00,,,0.01,0,WeatherCatV1.14B232,2013-02-27 02:24:00,
2013-02-26 21:29:00,38.0,33.3,29.73,ENE,70,1.0,5.0,83,0.00,,,0.01,0,WeatherCatV1.14B232,2013-02-27 02:29:00,
2013-02-26 21:34:00,37.8,33.1,29.73,East,96,2.0,3.0,83,0.00,,,0.01,0,WeatherCatV1.14B232,2013-02-27 02:34:00,
2013-02-26 21:39:00,37.7,33.3,29.74,ESE,110,4.0,4.0,84,0.00,,,0.01,0,WeatherCatV1.14B232,2013-02-27 02:39:00,
2013-02-26 21:44:00,37.6,33.2,29.73,East,89,3.0,5.0,84,0.00,,,0.01,0,WeatherCatV1.14B232,2013-02-27 02:44:00,
2013-02-26 21:49:00,37.6,33.5,29.74,NE,55,3.0,8.0,85,0.00,,,0.01,0,WeatherCatV1.14B232,2013-02-27 02:49:00,
2013-02-26 21:54:00,37.5,33.7,29.74,ENE,66,2.0,4.0,86,0.00,,,0.01,0,WeatherCatV1.14B232,2013-02-27 02:54:00,
2013-02-26 21:59:00,37.5,33.7,29.72,ENE,66,3.0,6.0,86,0.00,,,0.01,0,WeatherCatV1.14B232,2013-02-27 02:59:00,
2013-02-26 22:04:00,37.4,33.9,29.72,ENE,78,4.0,8.0,87,0.00,,,0.01,0,WeatherCatV1.14B232,2013-02-27 03:04:00,
2013-02-26 22:09:00,37.2,34.3,29.71,East,80,1.0,3.0,89,0.00,,,0.01,0,WeatherCatV1.14B232,2013-02-27 03:09:00,
2013-02-26 22:14:00,37.0,34.3,29.70,ENE,59,2.0,4.0,90,0.17,,,0.03,0,WeatherCatV1.14B232,2013-02-27 03:14:00,
2013-02-26 22:19:00,36.7,34.0,29.70,ENE,61,3.0,5.0,90,0.15,,,0.04,0,WeatherCatV1.14B232,2013-02-27 03:19:00,
2013-02-26 22:24:00,36.5,34.1,29.69,NNE,32,3.0,9.0,91,0.09,,,0.05,0,WeatherCatV1.14B232,2013-02-27 03:24:00,
2013-02-26 22:29:00,36.2,34.1,29.69,ENE,66,8.0,8.0,92,0.09,,,0.05,0,WeatherCatV1.14B232,2013-02-27 03:29:00,
2013-02-26 22:34:00,36.1,34.3,29.68,ENE,63,3.0,8.0,93,0.06,,,0.05,0,WeatherCatV1.14B232,2013-02-27 03:34:00,
2013-02-26 22:39:00,36.1,34.3,29.67,ENE,76,4.0,5.0,93,0.04,,,0.05,0,WeatherCatV1.14B232,2013-02-27 03:39:00,
2013-02-26 22:44:00,36.0,34.2,29.66,ENE,58,2.0,6.0,93,0.00,,,0.05,0,WeatherCatV1.14B232,2013-02-27 03:44:00,
2013-02-26 22:49:00,36.0,34.4,29.66,ENE,63,1.0,6.0,94,0.00,,,0.05,0,WeatherCatV1.14B232,2013-02-27 03:49:00,
2013-02-26 22:54:00,36.0,34.4,29.65,NNE,32,5.0,12.0,94,0.00,,,0.06,0,WeatherCatV1.14B232,2013-02-27 03:54:00,
2013-02-26 22:59:00,36.0,34.4,29.64,NE,54,2.0,9.0,94,0.00,,,0.06,0,WeatherCatV1.14B232,2013-02-27 03:59:00,
2013-02-26 23:04:00,36.0,34.4,29.64,ENE,61,2.0,4.0,94,0.00,,,0.06,0,WeatherCatV1.14B232,2013-02-27 04:04:00,
2013-02-26 23:09:00,36.0,34.4,29.64,NNE,32,8.0,12.0,94,0.00,,,0.06,0,WeatherCatV1.14B232,2013-02-27 04:09:00,
2013-02-26 23:14:00,36.0,34.4,29.63,ENE,69,1.0,7.0,94,0.00,,,0.06,0,WeatherCatV1.14B232,2013-02-27 04:14:00,
2013-02-26 23:19:00,36.0,34.4,29.62,North,5,5.0,9.0,94,0.00,,,0.06,0,WeatherCatV1.14B232,2013-02-27 04:19:00,
2013-02-26 23:24:00,36.0,34.4,29.61,NE,48,4.0,12.0,94,0.00,,,0.06,0,WeatherCatV1.14B232,2013-02-27 04:24:00,
2013-02-26 23:29:00,36.0,34.4,29.61,NE,54,5.0,9.0,94,0.00,,,0.06,0,WeatherCatV1.14B232,2013-02-27 04:29:00,
2013-02-26 23:34:00,36.0,34.4,29.61,ENE,60,0.0,5.0,94,0.00,,,0.06,0,WeatherCatV1.14B232,2013-02-27 04:34:00,
2013-02-26 23:39:00,36.1,34.5,29.64,NE,46,4.0,5.0,94,0.00,,,0.07,0,WeatherCatV1.14B232,2013-02-27 04:39:00,
2013-02-26 23:44:00,36.1,34.5,29.63,ENE,63,5.0,7.0,94,0.13,,,0.08,0,WeatherCatV1.14B232,2013-02-27 04:44:00,
2013-02-26 23:49:00,36.2,34.6,29.62,ENE,58,5.0,8.0,94,0.07,,,0.09,0,WeatherCatV1.14B232,2013-02-27 04:49:00,
2013-02-26 23:54:00,36.3,34.7,29.61,ENE,59,3.0,5.0,94,0.14,,,0.10,0,WeatherCatV1.14B232,2013-02-27 04:54:00,
2013-02-26 23:59:00,36.3,35.0,29.61,ENE,66,10.0,10.0,95,0.18,,,0.12,0,WeatherCatV1.14B232,2013-02-27 04:59:00,